65P/Gunn (2025)

Japanese version
Home page
Updated on July 28, 2026

---------------------------------------------------------------------

* Profile

* Pictures

* Orbital Elements

Epoch 2026 June 9.0 TT = JDT 2461200.5
T 2025 June 16.18156 TT                                 Pike
q   2.9258076            (2000.0)            P               Q
n   0.12841186     Peri.  213.61753     +0.09102875     +0.98585292
a   3.8910423      Node    61.96508     -0.87496062     +0.14666553
e   0.2480659      Incl.    9.17496     -0.47556038     -0.08113713
P   7.68
From 3210 observations 2013 Jan. 1-2026 June 28, mean residual 0".7.
     Nongravitational parameters A1 = -0.20, A2 = -0.0218.

* Finding Charts

* Magnitudes Graph

        m1 = 9.0 + 5 log d + 10.0 log r

---------------------------------------------------------------------

The orbital elements are published on M.P.E.C. 2026-N12.
The charts are made with StellaNavigator Ver.10 (AstroArts).
The magnitudes graphs are made with Comet for Windows.

---------------------------------------------------------------------

Copyright(C) Seiichi Yoshida (comet@aerith.net). All rights reserved.